Location: Arborea
(39.7744°N, 8.5819°E)
Time: 02:02:36
(UTC+00:00)

USA 229 - Pass Details

Date: 29 May 2022
Orbit: 938 x 1274 km, 63.4° (Epoch: 24 May)

Event Time Altitude Azimuth Distance (km) Brightness Sun altitude
Rises 00:39:56 0° 319° (NW) 4,038 7.1 -26.1°
Reaches altitude 10° 00:42:46 10° 312° (NW) 3,118 6.4 -25.9°
Maximum altitude 00:49:38 40° 246° (WSW) 1,755 4.4 -25.4°
Enters shadow 00:49:50 40° 243° (WSW) 1,759 4.4 -25.4°
